• In Belgien
  • Länderverzeichnis
  • Für 7 Tage
  • Wassertemperatur
  • Satellitenkarten
  • Wetterkarte
  • Widgets
  • user-avatar
    Anmelden

    Stündliche Wetter Jechegnadsor

    Heute, 22 Januar, Montag

    Zeit Temperatur Niederschläge Wind Luftdruck Luftfeuchtigkeit
    00:00 -1°C° 0 mm 2 m/S 651 mmHg 57%
    01:00 -1°C° 0 mm 2 m/S 651 mmHg 56%
    02:00 -1°C° 0 mm 2 m/S 651 mmHg 55%
    03:00 -1°C° 0 mm 2 m/S 650 mmHg 55%
    04:00 -1°C° 0 mm 2 m/S 650 mmHg 54%
    05:00 -1°C° 0 mm 2 m/S 650 mmHg 53%
    06:00 0°C° 0 mm 3 m/S 650 mmHg 51%
    07:00 0°C° 0 mm 3 m/S 650 mmHg 51%
    08:00 +2°C° 0 mm 2 m/S 650 mmHg 51%
    09:00 +3°C° 0 mm 2 m/S 650 mmHg 52%
    10:00 +4°C° 0 mm 2 m/S 649 mmHg 54%
    11:00 +5°C° 0 mm 2 m/S 649 mmHg 56%
    12:00 +6°C° 0 mm 2 m/S 649 mmHg 58%
    13:00 +6°C° 0 mm 2 m/S 649 mmHg 58%
    14:00 +6°C° 0 mm 2 m/S 648 mmHg 58%
    15:00 +5°C° 0 mm 3 m/S 648 mmHg 57%
    16:00 +3°C° 0 mm 3 m/S 647 mmHg 53%
    17:00 +2°C° 0 mm 3 m/S 647 mmHg 49%
    18:00 0°C° 0 mm 3 m/S 646 mmHg 45%
    19:00 0°C° 0 mm 3 m/S 646 mmHg 44%
    20:00 -1°C° 0 mm 3 m/S 646 mmHg 42%
    21:00 -1°C° 0 mm 3 m/S 646 mmHg 41%
    22:00 -2°C° 0 mm 3 m/S 646 mmHg 43%
    23:00 -2°C° 0 mm 3 m/S 646 mmHg 44%

    Morgen, 23 Januar, Dienstag

    Zeit Temperatur Niederschläge Wind Luftdruck Luftfeuchtigkeit
    00:00 -2°C° 0 mm 3 m/S 646 mmHg 46%
    01:00 -2°C° 0 mm 3 m/S 646 mmHg 47%
    02:00 -2°C° 0 mm 3 m/S 646 mmHg 49%
    03:00 -4°C° 0 mm 3 m/S 646 mmHg 50%
    04:00 -4°C° 0 mm 3 m/S 646 mmHg 51%
    05:00 -4°C° 0 mm 3 m/S 646 mmHg 53%
    06:00 -4°C° 0 mm 3 m/S 646 mmHg 54%
    07:00 -2°C° 0 mm 3 m/S 647 mmHg 55%
    08:00 -1°C° 0 mm 2 m/S 647 mmHg 56%
    09:00 -1°C° 0 mm 2 m/S 647 mmHg 56%
    10:00 +2°C° 0 mm 2 m/S 647 mmHg 55%
    11:00 +2°C° 0 mm 3 m/S 647 mmHg 53%
    12:00 +3°C° 0 mm 3 m/S 647 mmHg 52%
    13:00 +4°C° 0 mm 2 m/S 647 mmHg 53%
    14:00 +4°C° 0 mm 2 m/S 647 mmHg 54%
    15:00 +4°C° 0 mm 2 m/S 646 mmHg 56%
    16:00 +3°C° 0 mm 2 m/S 646 mmHg 55%
    17:00 +1°C° 0 mm 2 m/S 646 mmHg 54%
    18:00 -1°C° 0 mm 2 m/S 646 mmHg 54%
    19:00 -1°C° 0 mm 2 m/S 647 mmHg 53%
    20:00 -1°C° 0 mm 2 m/S 647 mmHg 53%
    21:00 -1°C° 0 mm 2 m/S 647 mmHg 52%
    22:00 +1°C° 0 mm 2 m/S 647 mmHg 54%
    23:00 +1°C° 0 mm 2 m/S 647 mmHg 56%

    übermorgen, 24 Januar, Mittwoch

    Zeit Temperatur Niederschläge Wind Luftdruck Luftfeuchtigkeit
    00:00 +1°C° 0 mm 2 m/S 647 mmHg 58%
    01:00 +1°C° 0,1 mm 2 m/S 647 mmHg 61%
    02:00 +1°C° 0,1 mm 2 m/S 648 mmHg 64%
    03:00 +1°C° 0,1 mm 2 m/S 648 mmHg 68%
    04:00 -1°C° 0,1 mm 2 m/S 648 mmHg 69%
    05:00 -1°C° 0,1 mm 2 m/S 648 mmHg 71%
    06:00 -1°C° 0,1 mm 2 m/S 648 mmHg 72%
    07:00 -1°C° 0,1 mm 2 m/S 648 mmHg 72%
    08:00 +1°C° 0,1 mm 2 m/S 649 mmHg 71%
    09:00 +1°C° 0,1 mm 2 m/S 650 mmHg 71%
    10:00 +2°C° 0 mm 2 m/S 650 mmHg 69%
    11:00 +3°C° 0 mm 2 m/S 650 mmHg 67%
    12:00 +5°C° 0 mm 1 m/S 650 mmHg 66%
    13:00 +5°C° 0 mm 1 m/S 650 mmHg 66%
    14:00 +5°C° 0 mm 1 m/S 650 mmHg 66%
    15:00 +5°C° 0 mm 1 m/S 650 mmHg 66%
    16:00 +3°C° 0 mm 1 m/S 650 mmHg 67%
    17:00 +2°C° 0 mm 1 m/S 650 mmHg 69%
    18:00 +1°C° 0 mm 1 m/S 650 mmHg 71%
    19:00 +1°C° 0 mm 1 m/S 650 mmHg 69%
    20:00 0°C° 0 mm 1 m/S 650 mmHg 68%
    21:00 -2°C° 0 mm 2 m/S 651 mmHg 66%
    22:00 -1°C° 0 mm 2 m/S 651 mmHg 67%
    23:00 +1°C° 0 mm 1 m/S 651 mmHg 67%

    25 Januar, Donnerstag

    Zeit Temperatur Niederschläge Wind Luftdruck Luftfeuchtigkeit
    00:00 +1°C° 0 mm 1 m/S 652 mmHg 68%
    01:00 +1°C° 0,2 mm 1 m/S 652 mmHg 70%
    02:00 +1°C° 0,2 mm 1 m/S 652 mmHg 73%
    03:00 +1°C° 0,2 mm 1 m/S 652 mmHg 75%
    04:00 +1°C° 0,2 mm 1 m/S 652 mmHg 77%
    05:00 +1°C° 0,2 mm 1 m/S 652 mmHg 78%
    06:00 +1°C° 0,2 mm 1 m/S 652 mmHg 79%
    07:00 +2°C° 0,2 mm 1 m/S 652 mmHg 79%
    08:00 +2°C° 0,2 mm 1 m/S 653 mmHg 79%
    09:00 +3°C° 0,2 mm 1 m/S 653 mmHg 78%
    10:00 +3°C° 0,3 mm 1 m/S 653 mmHg 78%
    11:00 +4°C° 0,3 mm 1 m/S 653 mmHg 77%
    12:00 +4°C° 0,3 mm 1 m/S 653 mmHg 77%
    13:00 +4°C° 0,4 mm 1 m/S 653 mmHg 77%
    14:00 +4°C° 0,4 mm 1 m/S 652 mmHg 77%
    15:00 +5°C° 0,4 mm 1 m/S 652 mmHg 78%
    16:00 +4°C° 0,3 mm 1 m/S 652 mmHg 79%
    17:00 +4°C° 0,3 mm 1 m/S 652 mmHg 81%
    18:00 +3°C° 0,3 mm 1 m/S 653 mmHg 83%
    19:00 +3°C° 0,3 mm 1 m/S 653 mmHg 83%
    20:00 +3°C° 0,3 mm 1 m/S 653 mmHg 83%
    21:00 +2°C° 0,3 mm 2 m/S 653 mmHg 83%
    22:00 +1°C° 0,2 mm 2 m/S 653 mmHg 83%
    23:00 +1°C° 0,2 mm 2 m/S 653 mmHg 82%

    26 Januar, Freitag

    Zeit Temperatur Niederschläge Wind Luftdruck Luftfeuchtigkeit
    00:00 +1°C° 0,2 mm 2 m/S 653 mmHg 82%
    01:00 +1°C° 0,1 mm 2 m/S 653 mmHg 82%
    02:00 -1°C° 0,1 mm 2 m/S 653 mmHg 82%
    03:00 -1°C° 0,1 mm 2 m/S 653 mmHg 82%
    04:00 -1°C° 0,1 mm 2 m/S 652 mmHg 82%
    05:00 -1°C° 0,1 mm 2 m/S 652 mmHg 82%
    06:00 -1°C° 0,1 mm 2 m/S 652 mmHg 82%
    07:00 -1°C° 0,2 mm 2 m/S 652 mmHg 83%
    08:00 -1°C° 0,2 mm 2 m/S 653 mmHg 84%
    09:00 +1°C° 0,2 mm 2 m/S 653 mmHg 85%
    10:00 +1°C° 0,4 mm 2 m/S 652 mmHg 83%
    11:00 +2°C° 0,4 mm 2 m/S 652 mmHg 82%
    12:00 +2°C° 0,4 mm 2 m/S 652 mmHg 81%
    13:00 +3°C° 0,2 mm 2 m/S 652 mmHg 80%
    14:00 +3°C° 0,2 mm 2 m/S 652 mmHg 79%
    15:00 +3°C° 0,2 mm 2 m/S 652 mmHg 78%
    16:00 +3°C° 0,2 mm 1 m/S 652 mmHg 81%
    17:00 +2°C° 0,2 mm 1 m/S 652 mmHg 84%
    18:00 +2°C° 0,2 mm 1 m/S 652 mmHg 87%
    19:00 +1°C° 0,2 mm 1 m/S 652 mmHg 87%
    20:00 +1°C° 0,2 mm 1 m/S 652 mmHg 87%
    21:00 +1°C° 0,2 mm 1 m/S 652 mmHg 87%
    22:00 +1°C° 0,3 mm 1 m/S 652 mmHg 87%
    23:00 +1°C° 0,3 mm 1 m/S 652 mmHg 87%

    27 Januar, Samstag

    Zeit Temperatur Niederschläge Wind Luftdruck Luftfeuchtigkeit
    00:00 +1°C° 0,3 mm 1 m/S 652 mmHg 87%
    01:00 0°C° 0,3 mm 1 m/S 652 mmHg 87%
    02:00 0°C° 0,3 mm 1 m/S 652 mmHg 88%
    03:00 0°C° 0,3 mm 1 m/S 652 mmHg 88%
    04:00 0°C° 0,3 mm 1 m/S 652 mmHg 88%
    05:00 0°C° 0,3 mm 1 m/S 652 mmHg 88%
    06:00 0°C° 0,3 mm 1 m/S 652 mmHg 88%
    07:00 0°C° 0,2 mm 1 m/S 652 mmHg 86%
    08:00 0°C° 0,2 mm 1 m/S 652 mmHg 85%
    09:00 -1°C° 0,2 mm 2 m/S 653 mmHg 83%
    10:00 -1°C° 0,2 mm 2 m/S 653 mmHg 81%
    11:00 +1°C° 0,2 mm 2 m/S 653 mmHg 80%
    12:00 +1°C° 0,2 mm 2 m/S 653 mmHg 78%
    13:00 +1°C° 0,2 mm 2 m/S 653 mmHg 77%
    14:00 +1°C° 0,2 mm 2 m/S 652 mmHg 77%
    15:00 +1°C° 0,2 mm 2 m/S 652 mmHg 77%
    16:00 +1°C° 0,1 mm 2 m/S 653 mmHg 78%
    17:00 -1°C° 0,1 mm 2 m/S 653 mmHg 80%
    18:00 -2°C° 0,1 mm 2 m/S 653 mmHg 82%
    19:00 -2°C° 0,1 mm 2 m/S 653 mmHg 82%
    20:00 -3°C° 0,1 mm 2 m/S 654 mmHg 82%
    21:00 -3°C° 0,1 mm 2 m/S 654 mmHg 83%
    22:00 -4°C° 0,1 mm 2 m/S 654 mmHg 83%
    23:00 -2°C° 0,1 mm 1 m/S 654 mmHg 83%
    Mehr zeigen